| time (UTC) | temp C | wind direction | speed KPH | gust KPH | rain 1hr cm | rain 24hr cm | rain mn cm | humidity % | barometer mb |
| 20260504210209 | 8 | 121 | 0.0 | 0.0 | 0.00 | 0.51 | 0.00 | 96 | 1023.0 |
| 20260504205947 | 8 | 121 | 0.0 | 0.0 | 0.00 | 0.51 | 0.00 | 97 | 1022.9 |
| 20260504205208 | 8 | 121 | 0.0 | 0.0 | 0.00 | 0.51 | 0.00 | 96 | 1022.9 |
| 20260504204710 | 8 | 121 | 0.0 | 0.0 | 0.00 | 0.51 | 0.00 | 96 | 1022.8 |
| 20260504204207 | 8 | 121 | 0.0 | 0.0 | 0.00 | 0.53 | 0.00 | 96 | 1022.8 |
| 20260504203724 | 8 | 121 | 0.0 | 0.0 | 0.00 | 0.53 | 0.00 | 96 | 1022.7 |
| 20260504202707 | 8 | 121 | 0.0 | 0.0 | 0.00 | 0.53 | 0.00 | 97 | 1022.6 |
| 20260504202207 | 8 | 121 | 0.0 | 0.0 | 0.00 | 0.53 | 0.00 | 96 | 1022.5 |
| 20260504201746 | 8 | 121 | 0.0 | 0.0 | 0.00 | 0.53 | 0.00 | 96 | 1022.5 |
| 20260504201727 | 8 | 121 | 0.0 | 0.0 | 0.00 | 0.53 | 0.00 | 96 | 1022.5 |
| 20260504200707 | 8 | 121 | 0.0 | 0.0 | 0.00 | 0.53 | 0.00 | 96 | 1022.4 |
| 20260504200209 | 8 | 121 | 0.0 | 0.0 | 0.00 | 0.53 | 0.00 | 96 | 1022.4 |
| 20260504195709 | 8 | 121 | 0.0 | 0.0 | 0.00 | 0.53 | 0.00 | 96 | 1021.8 |
| 20260504195206 | 8 | 121 | 0.0 | 0.0 | 0.00 | 0.53 | 0.00 | 96 | 1022.4 |
| 20260504194708 | 8 | 121 | 0.0 | 0.0 | 0.00 | 0.53 | 0.00 | 96 | 1022.3 |
| 20260504194207 | 8 | 121 | 0.0 | 0.0 | 0.00 | 0.53 | 0.00 | 96 | 1022.3 |
| 20260504193707 | 8 | 121 | 0.0 | 0.0 | 0.00 | 0.53 | 0.00 | 96 | 1022.3 |
| 20260504193212 | 8 | 121 | 0.0 | 0.0 | 0.00 | 0.53 | 0.00 | 96 | 1022.3 |
| 20260504192714 | 8 | 121 | 0.0 | 0.0 | 0.00 | 0.53 | 0.00 | 96 | 1022.2 |
| 20260504192206 | 8 | 121 | 0.0 | 0.0 | 0.00 | 0.53 | 0.00 | 96 | 1022.2 |
| 20260504191707 | 8 | 121 | 0.0 | 0.0 | 0.00 | 0.53 | 0.00 | 96 | 1022.2 |
| 20260504191206 | 8 | 121 | 0.0 | 0.0 | 0.00 | 0.53 | 0.00 | 96 | 1022.0 |
| 20260504190708 | 8 | 121 | 0.0 | 0.0 | 0.00 | 0.53 | 0.00 | 96 | 1022.0 |
| 20260504190241 | 8 | 121 | 0.0 | 0.0 | 0.00 | 0.53 | 0.00 | 96 | 1022.2 |
| 20260504190224 | 8 | 121 | 0.0 | 0.0 | 0.00 | 0.53 | 0.00 | 96 | 1022.0 |
| 20260504185456 | 8 | 121 | 0.0 | 0.0 | 0.00 | 0.53 | 0.00 | 96 | 1022.0 |
| 20260504184742 | 8 | 121 | 0.0 | 0.0 | 0.00 | 0.53 | 0.00 | 96 | 1021.8 |
| 20260504184728 | 8 | 121 | 0.0 | 0.0 | 0.00 | 0.53 | 0.00 | 96 | 1021.9 |
| 20260504183958 | 8 | 121 | 0.0 | 0.0 | 0.00 | 0.53 | 0.00 | 96 | 1021.8 |
| 20260504183200 | 8 | 121 | 0.0 | 0.0 | 0.00 | 0.56 | 0.00 | 96 | 1021.0 |
| 20260504182936 | 8 | 121 | 0.0 | 0.0 | 0.00 | 0.56 | 0.00 | 96 | 1020.9 |
| 20260504182133 | 7 | 121 | 0.0 | 0.0 | 0.00 | 0.56 | 0.00 | 96 | 1021.6 |
| 20260504182025 | 7 | 121 | 0.0 | 0.0 | 0.00 | 0.56 | 0.00 | 96 | 1021.7 |
| 20260504182021 | 7 | 121 | 0.0 | 0.0 | 0.00 | 0.56 | 0.00 | 96 | 1021.7 |
| 20260504182015 | 7 | 121 | 0.0 | 0.0 | 0.00 | 0.56 | 0.00 | 96 | 1021.7 |
| 20260504180136 | 8 | 121 | 0.0 | 0.0 | 0.00 | 0.58 | 0.00 | 96 | 1021.8 |
| 20260504175635 | 8 | 121 | 0.0 | 0.0 | 0.00 | 0.61 | 0.00 | 96 | 1021.8 |
| 20260504175133 | 8 | 121 | 0.0 | 0.0 | 0.00 | 0.61 | 0.00 | 96 | 1021.8 |
| 20260504174930 | 8 | 121 | 0.0 | 0.0 | 0.00 | 0.61 | 0.00 | 96 | 1021.8 |
| 20260504174135 | 8 | 121 | 0.0 | 0.0 | 0.00 | 0.61 | 0.00 | 96 | 1021.8 |
| 20260504173635 | 8 | 121 | 0.0 | 0.0 | 0.00 | 0.61 | 0.00 | 96 | 1021.8 |
| 20260504173137 | 8 | 121 | 0.0 | 0.0 | 0.00 | 0.61 | 0.00 | 96 | 1021.9 |
| 20260504172715 | 7 | 121 | 0.0 | 0.0 | 0.00 | 0.61 | 0.00 | 96 | 1022.0 |
| 20260504172657 | 8 | 121 | 0.0 | 0.0 | 0.00 | 0.61 | 0.00 | 96 | 1021.9 |
| 20260504171926 | 8 | 121 | 0.0 | 0.0 | 0.00 | 0.61 | 0.00 | 96 | 1022.2 |
| 20260504171134 | 8 | 121 | 0.0 | 0.0 | 0.00 | 0.61 | 0.00 | 96 | 1022.0 |
| 20260504170914 | 8 | 121 | 0.0 | 0.0 | 0.00 | 0.61 | 0.00 | 96 | 1022.0 |
| 20260504170137 | 8 | 121 | 0.0 | 0.0 | 0.00 | 0.61 | 0.00 | 96 | 1022.0 |
| 20260504160421 | 8 | 121 | 0.0 | 0.0 | 0.00 | 0.61 | 0.00 | 96 | 1022.2 |
| 20260504150607 | 8 | 121 | 0.0 | 0.0 | 0.00 | 0.61 | 0.00 | 96 | 1021.8 |
| 20260504150107 | 8 | 121 | 0.0 | 0.0 | 0.00 | 0.61 | 0.00 | 96 | 1021.8 |
| 20260504141105 | 8 | 121 | 0.0 | 0.0 | 0.00 | 0.61 | 0.61 | 96 | 1021.6 |
| 20260504140607 | 8 | 121 | 0.0 | 0.0 | 0.00 | 0.61 | 0.61 | 96 | 1021.7 |
| 20260504140342 | 8 | 121 | 0.0 | 0.0 | 0.00 | 0.61 | 0.61 | 96 | 1021.7 |
| 20260504130606 | 8 | 121 | 0.0 | 0.0 | 0.00 | 0.61 | 0.61 | 95 | 1021.6 |
| 20260504130113 | 8 | 121 | 0.0 | 0.0 | 0.00 | 0.61 | 0.61 | 95 | 1021.6 |
| 20260504110533 | 9 | 121 | 0.0 | 0.0 | 0.00 | 0.61 | 0.61 | 94 | 1021.0 |
| 20260504100557 | 10 | 121 | 0.0 | 0.0 | 0.00 | 0.91 | 0.61 | 94 | 1019.6 |
| 20260504100544 | 9 | 121 | 0.0 | 0.0 | 0.00 | 0.91 | 0.61 | 94 | 1020.1 |
| 20260504082007 | 12 | 121 | 0.0 | 0.0 | 0.00 | 0.97 | 0.61 | 93 | 1018.9 |
| 20260504081749 | 12 | 121 | 0.0 | 0.0 | 0.00 | 0.97 | 0.61 | 93 | 1018.7 |
| 20260504081015 | 12 | 121 | 0.0 | 0.0 | 0.00 | 0.97 | 0.61 | 93 | 1018.7 |
| 20260504080507 | 12 | 121 | 0.0 | 0.0 | 0.00 | 0.97 | 0.61 | 93 | 1018.6 |
| 20260504050509 | 12 | 107 | 0.0 | 0.0 | 0.05 | 0.97 | 0.61 | 95 | 1017.1 |
| 20260504050250 | 12 | 107 | 0.0 | 0.0 | 0.08 | 0.97 | 0.61 | 95 | 1017.1 |
| 20260504045508 | 12 | 107 | 0.0 | 0.0 | 0.13 | 0.97 | 0.61 | 95 | 1017.0 |
| 20260504045007 | 12 | 107 | 0.0 | 1.6 | 0.13 | 0.97 | 0.61 | 95 | 1017.0 |
| 20260504044508 | 12 | 107 | 0.0 | 1.6 | 0.13 | 0.97 | 0.61 | 95 | 1016.9 |
| 20260504044009 | 12 | 5 | 0.0 | 0.0 | 0.13 | 0.97 | 0.61 | 95 | 1016.9 |
| 20260504043510 | 12 | 5 | 0.0 | 0.0 | 0.10 | 0.94 | 0.58 | 95 | 1016.8 |
| 20260504043011 | 12 | 5 | 0.0 | 0.0 | 0.13 | 0.94 | 0.56 | 95 | 1016.8 |
| 20260504042435 | 12 | 194 | 0.0 | 0.0 | 0.10 | 0.91 | 0.56 | 95 | 1016.8 |
| 20260504041937 | 12 | 194 | 0.0 | 1.6 | 0.10 | 0.91 | 0.56 | 95 | 1016.8 |
| 20260504041437 | 12 | 194 | 0.0 | 1.6 | 0.10 | 0.91 | 0.56 | 95 | 1016.9 |
| 20260504040936 | 12 | 277 | 0.0 | 0.0 | 0.10 | 0.91 | 0.53 | 94 | 1016.9 |
| 20260504040719 | 12 | 277 | 0.0 | 1.6 | 0.10 | 0.89 | 0.51 | 95 | 1016.9 |
| 20260504035934 | 12 | 277 | 0.0 | 1.6 | 0.08 | 0.89 | 0.51 | 95 | 1016.9 |
| 20260504035734 | 12 | 103 | 0.0 | 1.6 | 0.05 | 0.84 | 0.48 | 95 | 1016.9 |
| 20260504035225 | 12 | 154 | 0.0 | 0.0 | 0.08 | 0.84 | 0.48 | 94 | 1016.8 |
| 20260504034436 | 12 | 130 | 0.0 | 1.6 | 0.08 | 0.84 | 0.48 | 94 | 1016.9 |
| 20260504033935 | 12 | 130 | 0.0 | 1.6 | 0.08 | 0.84 | 0.48 | 94 | 1016.8 |
| 20260504033718 | 13 | 132 | 0.0 | 0.0 | 0.10 | 0.84 | 0.46 | 95 | 1016.8 |
| 20260504033218 | 12 | 132 | 0.0 | 0.0 | 0.10 | 0.81 | 0.46 | 94 | 1016.8 |
| 20260504032442 | 12 | 132 | 1.6 | 9.7 | 0.15 | 0.81 | 0.46 | 94 | 1016.8 |
| 20260504031936 | 13 | 97 | 0.0 | 9.7 | 0.28 | 0.81 | 0.46 | 95 | 1016.8 |
| 20260504031513 | 12 | 161 | 1.6 | 3.2 | 0.28 | 0.81 | 0.46 | 94 | 1016.8 |
| 20260504031456 | 12 | 344 | 1.6 | 3.2 | 0.28 | 0.81 | 0.46 | 95 | 1016.8 |
| 20260504030437 | 12 | 111 | 0.0 | 1.6 | 0.25 | 0.79 | 0.43 | 94 | 1016.8 |
| 20260504025934 | 12 | 182 | 0.0 | 1.6 | 0.25 | 0.79 | 0.43 | 93 | 1016.9 |
| 20260504025434 | 12 | 126 | 0.0 | 1.6 | 0.23 | 0.79 | 0.41 | 94 | 1017.2 |
| 20260504024957 | 12 | 155 | 0.0 | 1.6 | 0.23 | 0.76 | 0.41 | 93 | 1017.2 |
| 20260504023936 | 12 | 124 | 0.0 | 1.6 | 0.23 | 0.76 | 0.41 | 94 | 1017.2 |
| 20260504023437 | 12 | 117 | 0.0 | 1.6 | 0.20 | 0.74 | 0.38 | 93 | 1017.2 |
| 20260504022934 | 12 | 100 | 0.0 | 4.8 | 0.18 | 0.71 | 0.36 | 92 | 1017.2 |
| 20260504022435 | 12 | 100 | 1.6 | 4.8 | 0.13 | 0.66 | 0.25 | 90 | 1017.2 |
| 20260504021934 | 13 | 102 | 1.6 | 1.6 | 0.00 | 0.53 | 0.18 | 90 | 1017.0 |
| 20260504021437 | 13 | 184 | 1.6 | 3.2 | 0.00 | 0.53 | 0.18 | 90 | 1017.0 |
| 20260504020935 | 13 | 104 | 1.6 | 3.2 | 0.00 | 0.53 | 0.18 | 89 | 1017.0 |
| 20260504020720 | 13 | 128 | 1.6 | 0.0 | 0.00 | 0.53 | 0.18 | 89 | 1017.1 |
| 20260504015936 | 13 | 128 | 1.6 | 4.8 | 0.00 | 0.53 | 0.18 | 89 | 1017.0 |
| 20260504015437 | 13 | 128 | 1.6 | 4.8 | 0.00 | 0.53 | 0.18 | 90 | 1017.1 |
| 20260504015009 | 13 | 115 | 1.6 | 1.6 | 0.00 | 0.53 | 0.18 | 89 | 1017.1 |
| 20260504014952 | 12 | 150 | 1.6 | 3.2 | 0.00 | 0.53 | 0.18 | 90 | 1017.1 |
| 20260504013941 | 13 | 115 | 1.6 | 1.6 | 0.00 | 0.53 | 0.18 | 90 | 1017.0 |
| 20260504013439 | 13 | 175 | 1.6 | 1.6 | 0.00 | 0.53 | 0.18 | 92 | 1017.0 |
| 20260504013214 | 13 | 91 | 1.6 | 1.6 | 0.00 | 0.53 | 0.18 | 92 | 1017.1 |
| 20260504012434 | 12 | 151 | 0.0 | 1.6 | 0.00 | 0.53 | 0.18 | 91 | 1017.2 |
| 20260504012219 | 12 | 107 | 1.6 | 1.6 | 0.00 | 0.53 | 0.18 | 91 | 1017.1 |
| 20260504011742 | 12 | 188 | 1.6 | 3.2 | 0.00 | 0.53 | 0.18 | 91 | 1017.1 |
| 20260504011736 | 12 | 171 | 0.0 | 1.6 | 0.00 | 0.53 | 0.18 | 91 | 1017.1 |
| 20260504010436 | 12 | 137 | 1.6 | 3.2 | 0.00 | 0.53 | 0.18 | 92 | 1017.1 |
| 20260504005933 | 12 | 96 | 1.6 | 1.6 | 0.00 | 0.53 | 0.18 | 92 | 1017.0 |
| 20260504005435 | 12 | 135 | 1.6 | 3.2 | 0.00 | 0.53 | 0.18 | 92 | 1016.9 |
| 20260504004934 | 12 | 211 | 1.6 | 3.2 | 0.00 | 0.53 | 0.18 | 93 | 1016.9 |
| 20260504004717 | 11 | 166 | 1.6 | 1.6 | 0.00 | 0.53 | 0.18 | 93 | 1016.8 |
| 20260504003938 | 11 | 196 | 1.6 | 11.3 | 0.00 | 0.53 | 0.18 | 93 | 1016.8 |
| 20260504003434 | 11 | 186 | 1.6 | 11.3 | 0.00 | 0.56 | 0.18 | 93 | 1016.7 |
| 20260504002933 | 11 | 86 | 1.6 | 1.6 | 0.00 | 0.56 | 0.18 | 94 | 1016.7 |
| 20260504002433 | 11 | 223 | 1.6 | 11.3 | 0.00 | 0.56 | 0.18 | 94 | 1016.7 |
| 20260504001934 | 11 | 111 | 1.6 | 11.3 | 0.00 | 0.56 | 0.18 | 94 | 1016.6 |
| 20260504001433 | 11 | 114 | 1.6 | 1.6 | 0.00 | 0.56 | 0.18 | 94 | 1016.7 |
| 20260504000935 | 11 | 271 | 1.6 | 3.2 | 0.03 | 0.56 | 0.18 | 95 | 1016.6 |
| 20260504000432 | 11 | 92 | 1.6 | 3.2 | 0.03 | 0.56 | 0.18 | 95 | 1016.6 |
| 20260503235933 | 11 | 101 | 1.6 | 6.4 | 0.03 | 0.56 | 0.18 | 95 | 1016.6 |
| 20260503235438 | 11 | 171 | 1.6 | 6.4 | 0.05 | 0.56 | 0.18 | 95 | 1016.5 |
| 20260503235214 | 11 | 109 | 1.6 | 4.8 | 0.05 | 0.56 | 0.18 | 95 | 1016.4 |
| 20260503234433 | 10 | 147 | 0.0 | 1.6 | 0.05 | 0.56 | 0.18 | 95 | 1016.5 |
| 20260503233934 | 10 | 134 | 0.0 | 3.2 | 0.05 | 0.56 | 0.18 | 95 | 1016.5 |
| 20260503233435 | 10 | 120 | 1.6 | 3.2 | 0.05 | 0.56 | 0.18 | 95 | 1016.4 |
| 20260503232934 | 10 | 90 | 1.6 | 3.2 | 0.05 | 0.56 | 0.18 | 95 | 1016.3 |
| 20260503232711 | 10 | 128 | 1.6 | 3.2 | 0.05 | 0.56 | 0.18 | 95 | 1016.3 |
| 20260503231933 | 10 | 187 | 1.6 | 3.2 | 0.05 | 0.56 | 0.18 | 95 | 1016.3 |
| 20260503231433 | 10 | 210 | 1.6 | 3.2 | 0.05 | 0.56 | 0.18 | 95 | 1016.3 |
| 20260503231222 | 10 | 123 | 0.0 | 4.8 | 0.03 | 0.53 | 0.15 | 95 | 1016.2 |
| 20260503230433 | 10 | 101 | 0.0 | 4.8 | 0.03 | 0.53 | 0.15 | 95 | 1016.1 |
| 20260503225934 | 10 | 90 | 0.0 | 1.6 | 0.03 | 0.53 | 0.15 | 95 | 1016.1 |
| 20260503225432 | 10 | 117 | 0.0 | 1.6 | 0.00 | 0.51 | 0.15 | 95 | 1016.0 |
| 20260503224932 | 10 | 128 | 0.0 | 0.0 | 0.00 | 0.51 | 0.15 | 95 | 1016.0 |
| 20260503224435 | 10 | 98 | 0.0 | 1.6 | 0.00 | 0.51 | 0.15 | 95 | 1015.9 |
| 20260503223934 | 10 | 181 | 0.0 | 1.6 | 0.00 | 0.51 | 0.15 | 95 | 1015.8 |
| 20260503223436 | 10 | 123 | 0.0 | 3.2 | 0.00 | 0.51 | 0.15 | 95 | 1015.8 |
| 20260503222935 | 10 | 275 | 1.6 | 3.2 | 0.00 | 0.51 | 0.15 | 95 | 1015.8 |
| 20260503222434 | 10 | 134 | 1.6 | 1.6 | 0.03 | 0.51 | 0.15 | 95 | 1015.7 |
| 20260503221942 | 10 | 93 | 1.6 | 3.2 | 0.03 | 0.51 | 0.15 | 95 | 1015.6 |
| 20260503221440 | 10 | 120 | 0.0 | 3.2 | 0.03 | 0.51 | 0.15 | 95 | 1014.5 |
| 20260503220934 | 10 | 129 | 0.0 | 3.2 | 0.03 | 0.51 | 0.15 | 95 | 1015.6 |
| 20260503220435 | 10 | 103 | 0.0 | 3.2 | 0.05 | 0.51 | 0.15 | 95 | 1015.5 |
| 20260503215935 | 10 | 217 | 0.0 | 0.0 | 0.05 | 0.51 | 0.15 | 95 | 1015.5 |
| 20260503215435 | 10 | 123 | 0.0 | 1.6 | 0.05 | 0.51 | 0.15 | 95 | 1015.3 |
| 20260503214935 | 10 | 123 | 0.0 | 1.6 | 0.05 | 0.51 | 0.15 | 95 | 1015.2 |
| 20260503214717 | 10 | 163 | 0.0 | 1.6 | 0.08 | 0.51 | 0.15 | 95 | 1015.1 |
| 20260503213934 | 10 | 163 | 1.6 | 1.6 | 0.08 | 0.51 | 0.15 | 95 | 1015.1 |
| 20260503213434 | 10 | 159 | 1.6 | 1.6 | 0.08 | 0.51 | 0.15 | 95 | 1015.1 |
| 20260503212938 | 10 | 171 | 0.0 | 1.6 | 0.08 | 0.51 | 0.13 | 95 | 1015.1 |
| 20260503212436 | 10 | 188 | 0.0 | 1.6 | 0.05 | 0.51 | 0.13 | 95 | 1015.0 |
| 20260503211935 | 10 | 166 | 0.0 | 1.6 | 0.05 | 0.51 | 0.13 | 94 | 1014.9 |
| 20260503211435 | 10 | 175 | 0.0 | 1.6 | 0.05 | 0.51 | 0.13 | 94 | 1014.9 |
| 20260503211220 | 10 | 153 | 0.0 | 1.6 | 0.05 | 0.51 | 0.10 | 94 | 1014.7 |
| 20260503210434 | 10 | 153 | 0.0 | 1.6 | 0.05 | 0.48 | 0.10 | 94 | 1014.7 |